This is the latest recevied weather packets stored in our database for station/object OE-11099. If no packets are shown the sender has not sent any weather packets the latest 10 day(s).
| Time | Temp. | Humidity | Pressure | Rain* | Wind** | Luminosity | Snow |
|---|---|---|---|---|---|---|---|
| 1788154879 | 61° F | 94% | 763.3 mmHg | 0 in | - | 27 W/m² | - |
| 1788154505 | 62° F | 93% | 763.1 mmHg | 0 in | - | 27 W/m² | - |
| 1788153905 | 62° F | 91% | 763.2 mmHg | 0 in | - | 20 W/m² | - |
| 1788153079 | 63° F | 87% | 763.1 mmHg | 0 in | - | 7 W/m² | - |
| 1788152706 | 63° F | 88% | 762.9 mmHg | 0 in | - | 7 W/m² | - |
| 1788152105 | 64° F | 85% | 762.7 mmHg | 0 in | - | 0 W/m² | - |
| 1788151278 | 64° F | 85% | 762.7 mmHg | 0 in | - | 0 W/m² | - |
| 1788150906 | 64° F | 85% | 762.7 mmHg | 0 in | - | 0 W/m² | - |
| 1788150306 | 63° F | 88% | 762.8 mmHg | 0 in | - | 0 W/m² | - |
| 1788149717 | 64° F | 86% | 762.8 mmHg | 0 in | - | 0 W/m² | - |
| 1788149106 | 64° F | 85% | 763 mmHg | 0.01 in | - | 0 W/m² | - |
| 1788148505 | 64° F | 83% | 763 mmHg | 0.05 in | - | 0 W/m² | - |
| 1788147906 | 63° F | 86% | 762.8 mmHg | 0.07 in | - | 0 W/m² | - |
| 1788147306 | 63° F | 88% | 763.1 mmHg | 0.07 in | - | 0 W/m² | - |
| 1788146706 | 63° F | 88% | 763.1 mmHg | 0.08 in | - | 0 W/m² | - |
| 1788145878 | 63° F | 88% | 763.2 mmHg | 0.08 in | - | 0 W/m² | - |
| 1788145505 | 63° F | 89% | 763.2 mmHg | 0.08 in | - | 0 W/m² | - |
| 1788144905 | 64° F | 88% | 763.1 mmHg | 0.07 in | - | 0 W/m² | - |
| 1788144078 | 65° F | 84% | 763.1 mmHg | 0.03 in | - | 0 W/m² | - |
| 1788143705 | 66° F | 78% | 763 mmHg | 0.01 in | - | 0 W/m² | - |
| 1788143105 | 67° F | 75% | 762.5 mmHg | 0.01 in | - | 0 W/m² | - |
| 1788142278 | 67° F | 73% | 762.7 mmHg | 0 in | - | 0 W/m² | - |
| 1788141906 | 67° F | 74% | 762.5 mmHg | 0 in | - | 0 W/m² | - |
| 1788141306 | 66° F | 77% | 762.4 mmHg | 0 in | - | 0 W/m² | - |
| 1788140479 | 65° F | 81% | 762.3 mmHg | 0 in | - | 0 W/m² | - |
* Rain latest hour (hover to see other rain measurements)
** Current wind speed in m/s (hover to see current wind gust speed)